Location: *
(43.4667°N, 11.6833°E)
Time: 00:54:39
(UTC+00:00)

USA 238 DEB - Pass Details

Date: 19 July 2019
Orbit: 1036 x 1177 km, 63.4° (Epoch: 12 August)

Event Time Altitude Azimuth Distance (km) Brightness Sun altitude
Rises 23:28:30 0° 324° (NW) 3,939 7.4 -25.7°
Reaches altitude 10° 23:31:12 10° 328° (NNW) 2,998 6.7 -25.7°
Maximum altitude 23:38:19 62° 49° (NE) 1,273 4.2 -25.6°
Enters shadow 23:43:09 23° 124° (ESE) 2,257 5.1 -25.6°
